Flag for Andorra Weather past 2 weeks in Andorra La Vella, Andorra

Now
57 °F

Clear.


Feels Like: 57 °F
Forecast: 42 / 67 °F
Wind: 3 mph from Southwest

Location: Carcassonne Airport

Current Time: Oct 2, 2014 at 8:49:45 AM

Latest Report: Oct 2, 2014 at 8:00 AM


Visibility: N/A

Pressure: 30.30 "Hg

Humidity: 94%

Dew point: 55 °F

Location of Andorra La VellaLocation

Historic Weather in Andorra La Vella — Graph

°F

Andorra La Vella temperature yesterday

Maximum temperature yesterday: 75 °F (at 3:30 PM)
Minimum temperature yesterday: 64 °F (at 3:00 AM)
Average temperature yesterday: 68 °F

Past Weeks' High & Low Weather Summary

 TemperatureHumidityPressure
High82 °F (Sep 19, 4:00 PM)100% (Sep 20, 2:30 AM)30.33 "Hg (Sep 20, 2:30 AM)
Low43 °F (Sep 27, 7:00 AM)31% (Sep 26, 4:30 PM)29.71 "Hg (Sep 17, 7:00 AM)
Average67 °F76%30.07 "Hg
* Reported Sep 17 7:00 AM — Oct 2 7:30 AM, Andorra La Vella, Weather by CustomWeather, © 2014

Note: Actual official high and low records may vary slightly from our data, if they occured in-between our weather recording intervals... More about our weather records

Advertising

Andorra La Vella weather history for previous 24 hours

 ConditionsComfort  
Time TempWeatherWind HumidityBarometerVisibility
7:30 AM
Oct 2
59 °FClear.3 mph88%30.27 "HgN/A
7:00 AM59 °FClear.5 mph94%30.27 "HgN/A
6:30 AM57 °FClear.3 mph94%30.27 "Hg6 mi
6:00 AM59 °FClear.5 mph94%30.27 "Hg6 mi
5:30 AM59 °FClear.2 mph94%30.27 "HgN/A
5:00 AM59 °FClear.3 mph94%30.30 "HgN/A
4:30 AM61 °FClear.5 mph94%30.30 "Hg6 mi
4:00 AM61 °FClear.3 mph88%30.30 "HgN/A
3:30 AM61 °FClear.5 mph94%30.30 "HgN/A
3:00 AM61 °FClear.6 mph94%30.30 "HgN/A
2:30 AM61 °FClear.6 mph94%30.30 "HgN/A
2:00 AM63 °FClear.7 mph88%30.30 "HgN/A
1:30 AM63 °FClear.7 mph88%30.30 "HgN/A
1:00 AM63 °FClear.8 mph88%30.30 "HgN/A
12:30 AM63 °FClear.7 mph88%30.30 "HgN/A
12:00 AM64 °FClear.7 mph88%30.30 "HgN/A
11:30 PM
Oct 1
64 °FClear.8 mph88%30.30 "HgN/A
11:00 PM64 °FPassing clouds.8 mph88%30.30 "HgN/A
10:30 PM66 °FClear.10 mph83%30.30 "HgN/A
10:00 PM66 °FClear.9 mph83%30.30 "HgN/A
9:30 PM66 °FClear.7 mph83%30.30 "HgN/A
9:00 PM66 °FClear.5 mph83%30.30 "HgN/A
8:30 PM66 °FClear.3 mph83%30.30 "HgN/A
8:00 PM66 °FClear.5 mph83%30.27 "Hg4 mi
7:30 PM68 °FClear.7 mph78%30.27 "HgN/A
7:00 PM72 °FClear.8 mph69%30.27 "HgN/A
6:30 PM73 °FClear.9 mph65%30.27 "HgN/A
6:00 PM73 °FClear.12 mph65%30.24 "HgN/A
5:30 PM75 °FClear.12 mph61%30.27 "HgN/A
5:00 PM75 °FClear.12 mph61%30.27 "HgN/A
4:30 PM75 °FClear.12 mph61%30.27 "HgN/A
4:00 PM73 °FPassing clouds.12 mph65%30.27 "HgN/A
3:30 PM75 °FScattered clouds.13 mph65%30.27 "HgN/A
3:00 PM73 °FScattered clouds.12 mph69%30.27 "HgN/A
2:30 PM73 °FScattered clouds.13 mph69%30.30 "HgN/A
2:00 PM72 °FPassing clouds.14 mph73%30.30 "HgN/A
1:30 PM70 °FBroken clouds.15 mph73%30.33 "HgN/A
1:00 PM72 °FPassing clouds.14 mph73%30.33 "HgN/A
12:30 PM70 °FScattered clouds.14 mph78%30.33 "HgN/A
12:00 PM68 °FPartly sunny.13 mph78%30.33 "HgN/A
11:30 AM68 °FPartly sunny.10 mph83%30.33 "HgN/A
11:00 AM66 °FOvercast.12 mph88%30.33 "HgN/A
10:30 AM66 °FOvercast.13 mph88%30.33 "HgN/A
10:00 AM66 °FLow clouds.10 mph83%30.33 "HgN/A
9:30 AM66 °FMostly cloudy.12 mph88%30.33 "HgN/A
9:00 AM64 °FMostly cloudy.10 mph88%30.30 "HgN/A
8:30 AM64 °FPassing clouds.10 mph88%30.30 "HgN/A
8:00 AM64 °FOvercast.9 mph88%30.30 "HgN/A
Weather by CustomWeather, © 2014

See weather overviewHow to use our weather pages